Location: Belfast
(54.5830°N, 5.9330°W)
Time: 21:48:21
(UTC+00:00)

ISS - Pass Details

Date: 13 November 2018
Orbit: 402 x 409 km, 51.6° (Epoch: 13 November)

Event Time Altitude Azimuth Distance (km) Brightness Sun altitude
Exits shadow 05:34:44 12° 188° (S) 1,351 -1.2 -19.3°
Drops below altitude 10° 05:35:15 10° 180° (S) 1,459 -1.0 -19.2°
Sets 05:38:01 0° 155° (SSE) 2,316 0.4 -18.9°
